STARLINK-1543, 46053

Orbit data source: Space-Track

STARLINK-1543, 46053 is a payload satellite owned by SpaceX/Seattle (US) in LEO that was launched on Fri, 07 Aug 2020 UTC via an FALCON 9 launch vehicle from the Air Force Eastern Test Range (AFETR). Payload-class satellites include a variety of spacecraft equipped with specific instruments for various scientific and technological missions. These include communications satellites like Starlink; space stations such as the ISS; scientific satellites like the Hubble; Earth observation satellites from companies like Planet Labs, Umbra, and HawkEye 360; GPS; miniature CubeSats for education and research; and military/defense satellites.

Loading next visibility...
Identifier
46053, 2020-055AC
Orbit
LEO
Country
Flag of USUS
Related business
Manufacturer
SpaceX/Seattle
Mission
Operational Commercial Communications
Bus & Motor
STARLINK, Unknown motor
Mass
260 kg wet, ~248 kg dry
Launch date (UTC)
2020-08-07 (6 years ago)
Launch vehicle
FALCON 9
Launch site
Air Force Eastern Test Range (AFETR)
Object type
Payload
Rocket body
Debris
Shape & HBR
Box + 1 Pan, 10.1 m
Radar Cross Section
13.562 m², Large (>1 m²)

Expand to show TLE details & history
Last TLE update: 4 hours ago

TLE from 4 hours ago
0 STARLINK-1543
1 46053U 20055AC  26266.29993035  .00000976  00000-0  43196-4 0  9991
2 46053  53.1609 274.3731 0001853  84.5899 275.5314 15.31714974339353
Epoch: 2026-09-23T07:11Z
TLE epoch observation values (Epoch: 2026-09-23T07:11:53.982Z)
Latitude
0.00001°
Longitude
164.24514°
Altitude
471.474 km
Speed
7.632 km/s
True Right ascension
18h 17m 29s
True Declination
0° 00' 00"
Sunlit
Object was in daylight at epoch
Visualization orbit readout
Latitude
Unknown
Longitude
Unknown
Altitude
Unknown
Speed
Unknown
Apparent Right ascension
Unknown
Apparent Declination
Unknown
Sunlit
N/A
Visualization observer readout
Local Sidereal Time
04:07:15
Azimuth
Unknown
Elevation
Unknown
Doppler factor
Unknown
Orbital elements
Apogee altitude
472.221 km
Perigee altitude
469.683 km
Semi-major axis
6,849.089 km
Eccentricity
0.00019
Inclination
53.1609°
RAAN
274.3731°
Arg. of periapsis
84.5899°
True anomaly
275.51026°
Mean anomaly
275.5314°
Eccentric anomaly
275.52083°
Mean motion
3.82908 °/min
Orbital period
94.02 mins
BSTAR
0.000043196
Loading maneuver chart data...
Computing Atmospheric mass density...

Documentation

Showing up to 5 results
|